FW9594 Weather Reports


Display with metric or nautical units.
time (UTC)temp
F
wind
direction
speed
MPH
gust
MPH
rain 1hr
in
rain 24hr
in
rain mn
in
humidity
%
barometer
mb
20260504081150 65 166 1.0 4.0 0.00 0.00 0.00 63 1012.7
20260504080145 65 149 2.0 6.0 0.00 0.00 0.00 61 1012.9
20260504070140 65 42 0.0 4.0 0.00 0.00 0.00 61 1013.5
20260504060133 66 202 0.0 3.0 0.00 0.00 0.00 59 1014.2
20260504050129 67 226 0.0 4.0 0.00 0.00 0.00 55 1014.7
20260504045129 67 234 1.0 3.0 0.00 0.00 0.00 55 1014.7
20260504044130 68 207 0.0 2.0 0.00 0.00 0.00 54 1014.9
20260504043128 68 178 1.0 4.0 0.00 0.00 0.00 54 1015.1
20260504042129 68 243 0.0 3.0 0.00 0.00 0.00 54 1015.2
20260504041129 68 231 0.0 3.0 0.00 0.00 0.00 54 1015.1
20260504040127 69 257 0.0 4.0 0.00 0.00 0.00 54 1015.2
20260504035125 69 204 0.0 6.0 0.00 0.00 0.00 54 1014.9
20260504034126 69 213 1.0 3.0 0.00 0.00 0.00 54 1014.9
20260504033557 69 210 0.0 2.0 0.00 0.00 0.00 53 1014.8
20260504032121 70 118 0.0 3.0 0.00 0.00 0.00 51 1014.8
20260504031603 70 254 0.0 2.0 0.00 0.00 0.00 50 1014.8
20260504030119 71 254 1.0 4.0 0.00 0.00 0.00 49 1014.7
20260504025117 71 125 1.0 4.0 0.00 0.00 0.00 48 1014.7
20260504024115 71 271 1.0 2.0 0.00 0.00 0.00 46 1014.5
20260504023115 72 128 0.0 5.0 0.00 0.00 0.00 45 1014.7
20260504022113 72 192 1.0 5.0 0.00 0.00 0.00 44 1014.5
20260504021114 72 82 1.0 4.0 0.00 0.00 0.00 44 1014.7
20260504020114 73 227 1.0 4.0 0.00 0.00 0.00 42 1014.5
20260504015112 73 271 0.0 5.0 0.00 0.00 0.00 42 1014.5
20260504014111 74 231 0.0 5.0 0.00 0.00 0.00 41 1014.3
20260504013112 74 227 2.0 4.0 0.00 0.00 0.00 41 1014.3
20260504012111 75 120 2.0 5.0 0.00 0.00 0.00 40 1014.2
20260504011111 75 165 1.0 3.0 0.00 0.00 0.00 40 1014.2
20260504010551 76 247 2.0 3.0 0.00 0.00 0.00 40 1014.2
20260504005112 77 228 0.0 4.0 0.00 0.00 0.00 38 1014.2
20260504004112 78 188 1.0 4.0 0.00 0.00 0.00 36 1014.2
20260504003112 79 186 1.0 6.0 0.00 0.00 0.00 36 1014.2
20260504002550 82 214 1.0 9.0 0.00 0.00 0.00 33 1014.2
20260504001112 83 285 1.0 6.0 0.00 0.00 0.00 32 1014.3
20260504000111 83 176 1.0 6.0 0.00 0.00 0.00 32 1014.3
20260503235559 83 288 0.0 6.0 0.00 0.00 0.00 33 1014.4
20260503234113 84 247 2.0 9.0 0.00 0.00 0.00 32 1014.5
20260503233603 84 73 2.0 6.0 0.00 0.00 0.00 31 1014.5
20260503232113 85 285 1.0 7.0 0.00 0.00 0.00 32 1014.6
20260503231113 84 135 2.0 7.0 0.00 0.00 0.00 31 1014.7
20260503230113 84 87 2.0 6.0 0.00 0.00 0.00 30 1014.6
20260503230033 85 238 2.0 5.0 0.00 0.00 0.00 31 1014.7
20260503224113 85 217 3.0 7.0 0.00 0.00 0.00 31 1014.8
20260503223113 85 125 2.0 6.0 0.00 0.00 0.00 31 1014.8
20260503222112 85 142 2.0 11.0 0.00 0.00 0.00 31 1014.9
20260503221112 85 248 2.0 6.0 0.00 0.00 0.00 31 1015.1
20260503220113 85 224 3.0 9.0 0.00 0.00 0.00 29 1015.3
20260503215112 85 175 3.0 9.0 0.00 0.00 0.00 29 1015.4
20260503214554 85 189 2.0 7.0 0.00 0.00 0.00 30 1015.4
20260503213557 85 219 2.0 6.0 0.00 0.00 0.00 31 1015.7
20260503212113 85 135 2.0 10.0 0.00 0.00 0.00 33 1015.9
20260503211113 85 82 2.0 7.0 0.00 0.00 0.00 33 1015.9
20260503210113 85 245 2.0 6.0 0.00 0.00 0.00 30 1016.2
20260503205513 84 204 3.0 9.0 0.00 0.00 0.00 32 1016.5
20260503205242 84 274 2.0 11.0 0.00 0.00 0.00 32 1016.3
20260503203112 85 272 2.0 11.0 0.00 0.00 0.00 33 1016.7
20260503202113 84 217 2.0 10.0 0.00 0.00 0.00 35 1016.8
20260503201113 83 286 2.0 10.0 0.00 0.00 0.00 32 1017.0
20260503200114 85 272 2.0 7.0 0.00 0.00 0.00 36 1017.2
20260503195112 84 224 3.0 7.0 0.00 0.00 0.00 34 1017.4
20260503194112 84 298 3.0 10.0 0.00 0.00 0.00 32 1017.5
20260503193113 83 123 1.0 7.0 0.00 0.00 0.00 37 1017.7
20260503192558 81 254 5.0 11.0 0.00 0.00 0.00 39 1017.8
20260503191556 83 134 2.0 9.0 0.00 0.00 0.00 38 1017.9
20260503190112 82 179 3.0 9.0 0.00 0.00 0.00 34 1018.1
20260503185112 81 223 8.0 13.0 0.00 0.00 0.00 38 1018.3
20260503184113 81 283 4.0 9.0 0.00 0.00 0.00 38 1018.5
20260503183553 80 145 6.0 11.0 0.00 0.00 0.00 42 1018.6
20260503182546 81 268 4.0 11.0 0.00 0.00 0.00 39 1018.7
20260503182021 80 257 5.0 10.0 0.00 0.00 0.00 41 1019.0
20260503180111 80 220 3.0 14.0 0.00 0.00 0.00 37 1019.1
20260503175110 79 285 4.0 13.0 0.00 0.00 0.00 44 1019.3
20260503174110 80 186 3.0 7.0 0.00 0.00 0.00 45 1019.5
20260503173110 78 269 7.0 14.0 0.00 0.00 0.00 44 1019.6
20260503172111 78 264 5.0 12.0 0.00 0.00 0.00 47 1019.7
20260503171109 79 228 3.0 9.0 0.00 0.00 0.00 49 1019.8
20260503170110 78 212 5.0 12.0 0.00 0.00 0.00 47 1020.0
20260503150110 70 317 2.0 9.0 0.00 0.00 0.00 55 1020.5
20260503140111 66 252 2.0 6.0 0.00 0.00 0.00 63 1020.5
20260503131111 62 209 1.0 4.0 0.00 0.00 0.00 68 1020.0
20260503130110 60 240 0.0 3.0 0.00 0.00 0.00 71 1020.1
20260503120110 58 212 1.0 3.0 0.00 0.00 0.00 71 1019.5
20260503110111 59 207 1.0 3.0 0.00 0.00 0.00 70 1019.0